Location: Shenandoah County Park
(38.9356°N, 78.4524°W)
Time: 07:11:42
(UTC-05:00)

Envisat - Pass Details

Date: 09 October 2023
Orbit: 762 x 764 km, 98.3° (Epoch: 30 November)

Event Time Altitude Azimuth Distance (km) Brightness Sun altitude
Rises 05:02:21 0° 10° (N) 3,238 6.6 -26.8°
Reaches altitude 10° 05:04:40 10° 9° (N) 2,307 5.7 -26.4°
Enters shadow 05:09:33 73° 308° (NW) 801 2.9 -25.5°
